Weather History for Spirit of St Louis, MO

Change the Weather History Date:

Tuesday, June 25, 2013

  Actual Average Record
Temperature  
Mean Temperature 83 °F -  
Max Temperature 93 °F 83 °F 95 °F (2005)
Min Temperature 75 °F 62 °F 54 °F (2004)
Cooling Degree Days 18    
Growing Degree Days 33 (Base 50)    
Moisture  
Dew Point 71 °F    
Average Humidity 66    
Maximum Humidity 79    
Minimum Humidity 52    
Precipitation  
Precipitation 0.00 in - - ()
Sea Level Pressure  
Sea Level Pressure 29.88 in    
Wind  
Wind Speed 6 mph (SSW)    
Max Wind Speed 13 mph    
Max Gust Speed 20 mph    
Visibility 10 miles    
Events      
Averages and records for this station are not official NWS values.
T = Trace of Precipitation, MM = Missing Value Source: NWS Daily Summary

Daily Weather History Graph

Daily Weather History Graph

Search for Another Location

Airport:

Trip Planner

Search our weather history database for the weather conditions in past years. The results will help you decide how hot, cold, wet, or windy it might be!

Date:

Astronomy

Jun. 25, 2013 Rise Set
Actual Time 5:39 AM CDT 8:31 PM CDT
Civil Twilight 5:07 AM CDT 9:03 PM CDT
Nautical Twilight 4:27 AM CDT 9:43 PM CDT
Astronomical Twilight 3:41 AM CDT 10:29 PM CDT
Moon 10:19 PM CDT (6/25) 8:17 AM CDT (6/25)
Length of Visible Light 15h 55m
Length of Day
14h 51m
Waning Gibbous, 92% of the Moon is Illuminated
Jun 25
Waning Gibbous
Jun 29
Last Quarter
Jul 8
New
Jul 15
First Quarter
Jul 22
Full

Hourly Weather History & Observations

Time (CDT) Temp. Heat Index Dew Point Humidity Pressure Visibility Wind Dir Wind Speed Gust Speed Precip Events Conditions
12:54 AM 80.1 °F 83.2 °F 70.0 °F 71% 29.91 in 10.0 mi SW 4.6 mph - N/A   Clear
1:54 AM 79.0 °F - 70.0 °F 74% 29.92 in 10.0 mi Calm Calm - N/A   Clear
2:54 AM 79.0 °F - 70.0 °F 74% 29.91 in 10.0 mi South 4.6 mph - N/A   Clear
3:54 AM 78.1 °F - 69.1 °F 74% 29.91 in 10.0 mi South 4.6 mph - N/A   Clear
4:54 AM 77.0 °F - 69.1 °F 76% 29.91 in 10.0 mi South 5.8 mph - N/A   Clear
5:54 AM 75.9 °F - 69.1 °F 79% 29.92 in 10.0 mi Variable 3.5 mph - N/A   Scattered Clouds
6:54 AM 77.0 °F - 69.1 °F 76% 29.92 in 10.0 mi South 3.5 mph - N/A   Scattered Clouds
7:54 AM 80.1 °F 83.2 °F 70.0 °F 71% 29.92 in 10.0 mi South 8.1 mph 19.6 mph N/A   Scattered Clouds
8:54 AM 82.9 °F 87.5 °F 71.1 °F 67% 29.93 in 10.0 mi SW 10.4 mph 18.4 mph N/A   Scattered Clouds
9:54 AM 84.9 °F 90.7 °F 72.0 °F 65% 29.93 in 10.0 mi SW 9.2 mph - N/A   Mostly Cloudy
10:54 AM 87.1 °F 93.6 °F 72.0 °F 61% 29.94 in 10.0 mi SW 8.1 mph 17.3 mph N/A   Mostly Cloudy
11:54 AM 88.0 °F 94.7 °F 72.0 °F 59% 29.93 in 10.0 mi SW 6.9 mph - N/A   Mostly Cloudy
12:54 PM 90.0 °F 96.9 °F 72.0 °F 55% 29.91 in 10.0 mi SW 6.9 mph - N/A   Mostly Cloudy
1:54 PM 91.0 °F 99.3 °F 73.0 °F 55% 29.90 in 10.0 mi SW 12.7 mph 18.4 mph N/A   Mostly Cloudy
2:54 PM 91.0 °F 99.3 °F 73.0 °F 55% 29.88 in 10.0 mi SW 9.2 mph - N/A   Mostly Cloudy
3:54 PM 91.9 °F 100.7 °F 73.0 °F 54% 29.84 in 10.0 mi SSW 11.5 mph - N/A   Clear
4:54 PM 91.0 °F 97.6 °F 71.1 °F 52% 29.78 in 10.0 mi South 10.4 mph - N/A   Scattered Clouds
5:54 PM 89.1 °F 97.0 °F 73.0 °F 59% 29.77 in 10.0 mi South 5.8 mph - N/A   Mostly Cloudy
6:54 PM 88.0 °F 95.6 °F 73.0 °F 61% 29.79 in 10.0 mi SSW 6.9 mph - N/A   Mostly Cloudy
7:54 PM 87.1 °F 94.5 °F 73.0 °F 63% 29.79 in 10.0 mi South 4.6 mph - N/A   Mostly Cloudy
8:54 PM 84.0 °F 89.6 °F 72.0 °F 67% 29.81 in 10.0 mi Calm Calm - N/A   Clear
9:54 PM 84.0 °F 89.6 °F 72.0 °F 67% 29.83 in 10.0 mi South 5.8 mph - N/A   Clear
10:54 PM 81.0 °F 85.2 °F 72.0 °F 74% 29.83 in 10.0 mi South 4.6 mph - N/A   Clear
11:54 PM 80.1 °F 83.6 °F 71.1 °F 74% 29.83 in 10.0 mi South 4.6 mph - N/A   Clear